Location: Holmbach
(49.5093°N, 8.8411°E)
Time: 05:42:40
(UTC+00:00)

Cosmos 1782 Rocket - Pass Details

Date: 17 June 2025
Orbit: 602 x 624 km, 82.5° (Epoch: 12 July)

Event Time Altitude Azimuth Distance (km) Brightness Sun altitude
Rises 23:41:58 0° 343° (NNW) 2,909 8.3 -17.0°
Reaches altitude 10° 23:44:19 10° 335° (NNW) 2,001 7.1 -17.0°
Maximum altitude 23:48:23 37° 269° (W) 980 4.5 -16.9°
Enters shadow 23:50:10 26° 223° (SW) 1,243 4.7 -16.9°
